Location: San Latino
(45.2500°N, 9.7500°E)
Time: 01:25:44
(UTC+00:00)

Daily predictions for brighter satellites

Satellite Brightness Start Highest point End
(mag) Time Altitude Azimuth Time Altitude Azimuth Time Altitude Azimuth
ATLAS CENTAUR R/B 4.0 00:03:29 10° NNW 00:05:22 18° NE 00:08:15 10° E
Nadezhda 2 Rocket 4.4 00:04:33 46° S 00:06:30 81° E 00:12:38 10° N
GEOS 3 Rocket 3.5 00:07:39 38° SE 00:09:44 90° WSW 00:15:03 10° NW
Cosmos 1726 3.8 00:08:32 10° NW 00:10:54 23° WNW 00:10:54 23° WNW
Cosmos 2058 Rocket 3.2 00:08:33 10° N 00:12:58 67° E 00:13:46 54° SE
COSMOS 2455 2.8 00:11:40 48° SSW 00:13:28 83° ESE 00:19:33 10° NNE
Meteor 1-29 3.3 00:10:35 10° N 00:13:32 63° N 00:13:32 63° N
Cosmos 2228 3.1 00:11:15 10° NNW 00:15:27 59° W 00:15:32 59° W
SJ 16-02 4.1 00:13:41 10° NNE 00:16:25 16° NE 00:19:08 10° E
SL-14 R/B 3.4 00:18:39 61° ESE 00:18:47 62° E 00:22:36 10° NNE
Cosmos 1953 4.2 00:16:55 10° NW 00:19:26 19° W 00:19:26 19° W
IRAS Rocket 4.2 00:17:53 42° SSE 00:19:56 88° ENE 00:25:32 10° NNW
Cosmos 1340 Rocket 4.3 00:18:12 10° NW 00:21:08 25° W 00:21:08 25° W
Okean 1-7 Rocket 3.5 00:22:03 65° S 00:22:42 84° E 00:27:13 10° N
Cosmos 1174 3.7 00:23:33 63° NNE 00:23:33 63° NNE 00:26:41 10° NNE
Cosmos 921 Rocket 3.5 00:23:34 43° SE 00:24:05 45° ESE 00:28:11 10° NNE
Cosmos 1300 2.9 00:20:55 10° N 00:24:43 62° E 00:25:04 58° ESE
BREEZE M DEB (TANK) 3.5 00:26:49 34° NE 00:26:49 34° NE 00:29:17 10° E
COSMOS 2487 3.7 00:25:04 10° NW 00:27:18 31° WNW 00:27:18 31° WNW
Cosmos 1626 Rocket 4.4 00:29:36 35° SE 00:30:38 42° E 00:34:44 10° NNE
Cosmos 2219 4.4 00:28:02 10° NNW 00:33:23 40° NE 00:38:40 10° SE
Cosmos 1626 2.0 00:34:31 80° W 00:34:33 80° W 00:38:17 10° N
STARLINK-60 3.4 00:36:27 59° NE 00:36:27 59° NE 00:39:10 10° NE
Cosmos 1606 Rocket 4.5 00:34:52 10° NNW 00:38:43 32° W 00:38:48 32° W
FALCON 9 R/B 3.5 00:38:25 34° SSW 00:41:01 44° SSE 00:59:42 10° ESE
Nadezhda 1 Rocket 4.1 00:36:08 10° N 00:42:19 73° E 00:45:52 27° SSE
MOZ.5/SAFIR/RUBIN 5/SL-8 3.7 00:44:16 39° SSE 00:45:58 80° ENE 00:50:37 10° N
UNK 4.1 00:44:01 28° SE 00:46:16 60° ENE 00:50:49 10° N
Cosmos 220 Rocket 4.2 00:46:16 47° SSE 00:47:14 60° ESE 00:51:37 10° NNE
Cosmos 2297 Rocket 3.3 00:43:40 10° NNW 00:49:04 43° ENE 00:54:26 10° SE
SL-4 R/B 2.4 00:49:13 38° WSW 00:51:03 81° NNW 00:55:48 10° ENE
Cosmos 1812 Rocket 4.3 00:47:47 10° N 00:52:10 50° ENE 00:54:30 25° SE
Cosmos 1437 2.8 00:52:48 64° N 00:52:48 64° N 00:55:27 10° N
CZ-4B R/B 4.3 00:47:49 10° NNE 00:52:46 45° E 00:55:16 26° SSE
NOSS 5 (C) 4.5 00:50:16 10° NW 00:53:31 67° SW 00:53:31 67° SW
SL-19 R/B 4.5 00:52:29 10° N 00:57:46 57° WNW 01:00:03 34° SW
ATLAS CENTAUR R/B 2.1 00:56:56 34° W 00:58:21 48° NW 01:02:23 10° NNE
SL-16 R/B 2.5 00:56:01 24° SSE 00:59:59 88° ENE 01:06:12 10° NNW
Cosmos 1777 Rocket 4.3 00:55:33 10° NNW 01:00:34 48° WSW 01:01:54 39° SW
Timation 2 Rocket 3.9 00:54:44 10° NNW 01:01:03 68° WSW 01:04:30 27° S
NOSS 3-4 (A) 4.3 00:57:31 19° WSW 01:01:30 43° NW 01:07:37 10° NNE
NOSS 3-4 (C) 4.3 00:57:37 19° WSW 01:01:36 44° NW 01:07:44 10° NNE
FALCON 9 DEB 3.3 01:02:07 55° SE 01:02:07 55° SE 01:05:25 10° ENE
BREEZE-M R/B 2.9 01:01:07 47° SSW 01:02:07 63° SSE 01:05:11 10° ENE
Cosmos 1602 Rocket 3.6 01:01:58 42° S 01:03:20 74° E 01:07:40 10° NNE
OE (NEXTSAT) 4.2 01:03:39 73° S 01:03:41 73° SSE 01:07:10 10° E
STARLINK-29 2.8 01:04:34 85° WNW 01:04:37 85° NNW 01:07:49 10° ENE
Cosmos 1455 3.4 01:03:35 10° N 01:07:07 37° ENE 01:09:23 18° SE
STARLINK-1369 4.5 01:08:12 28° SE 01:08:12 28° SE 01:11:06 10° ENE
ATLAS 3B R/B 2.8 01:01:43 10° NW 01:08:18 53° WSW 01:12:43 22° S
BREEZE-M DEB (TANK) 3.9 01:09:30 17° E 01:09:30 17° E 01:10:19 10° E
STARLINK-1372 4.4 01:10:25 29° SE 01:10:25 29° SE 01:13:29 10° ENE
IRS-1D 4.4 01:06:51 10° NNE 01:11:59 45° E 01:15:16 20° SSE
CENTAUR R/B 4.0 01:05:00 10° NW 01:11:59 31° WSW 01:14:47 26° SW
STARLINK-1378 4.3 01:12:31 31° SE 01:12:34 31° SE 01:15:43 10° ENE
STARLINK-1329 4.3 01:12:59 31° SE 01:13:02 31° SE 01:16:13 10° ENE
BREEZE-M DEB (TANK) 2.1 01:12:39 35° WNW 01:13:15 43° NNW 01:15:28 10° ENE
GP-B 3.9 01:09:07 10° NNE 01:13:25 46° E 01:16:10 20° SSE
STARLINK-1365 4.1 01:13:46 33° SE 01:13:52 33° SE 01:17:04 10° ENE
Meteor 2-1 Rocket 4.1 01:09:00 10° N 01:14:32 90° ENE 01:18:03 23° S
STARLINK-1379 4.2 01:14:39 32° SE 01:14:45 32° SE 01:17:57 10° ENE
STARLINK-1362 4.2 01:15:10 32° SE 01:15:18 32° SE 01:18:31 10° ENE
Cosmos 1745 Rocket 4.0 01:12:45 31° SSW 01:15:47 68° W 01:21:55 10° N
Cosmos-2242 4.2 01:12:43 10° N 01:16:44 38° ENE 01:20:32 11° SE
STARLINK-1373 4.1 01:17:22 33° SSE 01:17:35 34° SE 01:20:50 10° ENE
STARLINK-1390 4.0 01:19:27 34° SSE 01:19:44 35° SE 01:23:00 10° ENE
RESURS DK-1 3.0 01:19:17 32° WSW 01:20:41 45° WNW 01:24:41 10° NNE
EP 2 4.4 01:21:04 69° WSW 01:21:22 82° NW 01:24:29 10° NE
STARLINK-1218 4.5 01:20:24 10° NW 01:24:27 51° NNE 01:28:31 10° ESE
Cosmos 1356 Rocket 3.8 01:20:46 10° NNW 01:24:45 46° W 01:25:49 37° SW
Cosmos 2227 Rocket 2.5 01:19:06 10° NNW 01:24:47 68° ENE 01:30:25 10° SE
Cosmos 1763 Rocket 4.1 01:23:45 22° SSE 01:26:47 47° ESE 01:31:39 10° NNE
Cosmos 1697 Rocket 3.8 01:23:11 16° SSE 01:27:01 35° ESE 01:32:08 10° NE
CZ-2D R/B 2.1 01:22:19 10° N 01:27:34 71° WNW 01:30:15 29° SSW
Cosmos 1703 4.1 01:26:48 22° SSE 01:28:59 46° E 01:32:47 10° NNE
STARLINK-1254 4.4 01:25:23 10° NW 01:29:28 54° NNE 01:33:32 10° ESE
ADEOS II 2.7 01:25:10 10° NNE 01:30:17 50° E 01:34:07 17° S
ATLAS 2AS CENTAUR R/B 4.1 01:23:19 10° WSW 01:30:41 38° NW 01:37:57 10° NNE
CZ-4C R/B 4.1 01:30:46 32° SW 01:31:41 36° W 01:35:42 10° NNW
STARLINK-1231 4.3 01:30:23 10° NW 01:34:29 58° NNE 01:38:34 10° ESE
STARLINK-1228 3.1 01:32:56 10° WNW 01:36:11 50° SW 01:39:26 10° SE
Resurs 1-4 Rocket 2.4 01:32:07 10° N 01:37:18 57° WNW 01:40:11 26° SW
STARLINK-1234 3.1 01:34:21 10° WNW 01:41:18 - SE 01:37:02 47° WSW
STARLINK-1212 2.7 01:35:41 10° WNW 01:38:47 68° SW 01:41:51 10° SE
STARLINK-1105 2.7 01:36:09 10° WNW 01:39:14 67° SW 01:42:18 10° SE
USA 81 4.1 01:36:20 27° SSW 01:39:14 67° W 01:44:31 10° N
STARLINK-1232 4.1 01:35:21 10° NW 01:39:29 62° NNE 01:43:35 10° ESE
STARLINK-1209 3.8 01:36:38 10° WNW 01:44:32 - SE 01:38:43 33° W
STARLINK-1247 2.7 01:37:04 10° WNW 01:40:10 66° SW 01:43:15 10° SE
STARLINK-1227 2.7 01:37:32 10° WNW 01:40:36 65° SW 01:43:40 10° SE
STARLINK-52 3.6 01:39:41 27° W 01:41:05 50° NNW 01:44:14 10° NE
STARLINK-1226 2.7 01:38:22 10° WNW 01:41:28 64° SW 01:44:33 10° SE
Cosmos 1758 Rocket 3.5 01:39:23 27° S 01:41:44 89° E 01:46:07 10° N
ARIANE 5 R/B 3.6 01:37:37 10° NNE 01:42:22 39° E 01:46:55 11° SSE
STARLINK-1215 2.7 01:39:19 10° WNW 01:42:25 62° SW 01:45:30 10° SE
STARLINK-1217 2.8 01:41:05 10° WNW 01:44:11 60° SW 01:47:15 10° SE
H-2A R/B 4.0 01:40:38 10° SE 01:44:22 29° ENE 01:48:12 10° N
STARLINK-1208 4.0 01:40:19 10° NW 01:44:27 66° NNE 01:48:34 10° ESE
NPP 3.9 01:39:26 10° N 01:44:44 58° WNW 01:47:57 24° SW
STARLINK-1229 2.8 01:42:01 10° WNW 01:45:06 59° SW 01:48:11 10° SE
STARLINK-1270 2.8 01:42:53 10° WNW 01:45:58 58° SW 01:49:02 10° SE
STARLINK-1189 2.8 01:44:43 10° WNW 01:47:48 55° SW 01:50:51 10° SE
STARLINK-1188 2.9 01:45:37 10° WNW 01:48:40 54° SW 01:51:44 10° SE
STARLINK-1235 3.2 01:46:21 10° WNW 01:49:18 41° SW 01:52:15 10° SSE
STARLINK-1271 3.9 01:45:18 10° NW 01:49:27 70° NNE 01:53:35 10° ESE
STARLINK-1187 3.0 01:46:45 10° WNW 01:49:45 46° SW 01:52:44 10° SE
Cosmos 1898 Rocket 3.5 01:44:36 10° NNW 01:49:58 88° WSW 01:55:17 10° SSE
Meteor 1-21 Rocket 4.3 01:46:49 23° SSW 01:50:17 65° WNW 01:55:56 10° N
STARLINK-1191 2.9 01:48:07 10° WNW 01:51:07 51° SW 01:54:08 10° SE
Lacrosse 4 Rocket 3.2 01:47:38 10° NNW 01:51:39 34° NE 01:55:32 10° ESE
STARLINK-1221 2.9 01:48:58 10° WNW 01:52:00 50° SW 01:55:01 10° SE
Cosmos 1656 3.7 01:48:20 23° SSW 01:52:00 84° WNW 01:57:41 10° NNE
STARLINK-1222 2.9 01:49:52 10° WNW 01:52:53 49° SW 01:55:53 10° SE
STARLINK-1214 3.0 01:50:47 10° WNW 01:53:48 48° SW 01:56:47 10° SE
CZ-4C R/B 2.6 01:50:43 20° S 01:54:00 50° ESE 01:59:35 10° NE
STARLINK-1154 3.8 01:50:17 10° NW 01:54:26 75° NNE 01:58:35 10° ESE
Cosmos 2084 4.2 01:52:18 21° WSW 01:55:01 48° NW 01:59:22 10° NNE
SJ 16-02 1.3 01:51:03 10° NNW 01:55:27 64° WSW 01:59:17 13° S
Cosmos 2285 Rocket 4.3 01:49:05 10° NNW 01:55:29 73° ENE 02:01:49 10° SSE
Cosmos 468 Rocket 3.9 01:52:22 23° SSW 01:55:40 82° WNW 02:00:50 10° NNE
IDEFIX/ARIANE 42P 4.3 01:51:09 10° NE 01:55:41 28° E 02:00:10 10° SSE
Cosmos 1953 Rocket 3.7 01:54:38 17° S 01:58:03 74° E 02:02:30 10° NNE
STARLINK-1197 3.7 01:55:15 10° WNW 01:59:25 80° NNE 02:03:34 10° ESE
Cosmos 1937 Rocket 3.6 01:54:58 10° NNW 02:00:14 83° ENE 02:05:31 10° SSE
Cosmos 2369 4.0 01:55:55 16° S 02:00:17 62° ESE 02:05:53 10° NNE
NOSS 7 (H) 4.3 01:59:32 27° SSW 02:01:06 67° SE 02:04:03 10° NE
Meteor 2-10 Rocket 3.8 01:57:08 10° NNW 02:02:16 49° W 02:06:01 17° SSW
STARLINK-1198 3.6 02:00:12 10° WNW 02:04:22 86° NNE 02:08:31 10° ESE
Cosmos 1709 Rocket 4.3 02:01:48 19° SW 02:05:59 50° WNW 02:11:57 10° N
STARLINK-1199 3.6 02:05:13 10° WNW 02:09:23 88° SW 02:13:32 10° SE
STARLINK-1210 3.5 02:10:11 10° WNW 02:14:21 82° SW 02:18:29 10° SE
Cosmos 1814 Rocket 4.5 02:11:06 11° S 02:16:07 60° ESE 02:21:23 10° NNE
STARLINK-1320 3.0 02:14:52 20° WSW 02:16:50 67° NNW 02:19:57 10° NE
STARLINK-1322 3.0 02:15:11 20° WSW 02:17:11 67° NNW 02:20:18 10° NE
Cosmos 2219 3.9 02:12:23 10° NW 02:17:25 34° WSW 02:22:14 11° SSW
STARLINK-1324 3.1 02:15:32 20° WSW 02:17:32 66° NNW 02:20:40 10° NE
STARLINK-1294 3.1 02:15:47 19° WSW 02:17:49 66° NNW 02:20:57 10° NE
STARLINK-1261 3.1 02:16:09 19° WSW 02:18:12 65° NNW 02:21:18 10° NE
STARLINK-1325 3.1 02:16:30 19° WSW 02:18:33 65° NNW 02:21:40 10° NE
STARLINK-1333 3.1 02:16:48 19° WSW 02:18:52 64° NNW 02:21:58 10° NE
STARLINK-1334 3.1 02:17:07 19° WSW 02:19:13 64° NNW 02:22:19 10° NE
Cosmos 1980 Rocket 2.9 02:13:51 10° S 02:19:13 50° ESE 02:24:39 10° NE
STARLINK-1219 3.5 02:15:10 10° WNW 02:19:19 76° SW 02:23:27 10° SE
STARLINK-1326 3.1 02:17:28 19° WSW 02:19:33 64° NNW 02:22:40 10° NE
STARLINK-1323 3.1 02:17:47 18° WSW 02:19:53 63° NNW 02:23:00 10° NE
STARLINK-1338 3.2 02:17:39 18° WSW 02:20:06 73° NNW 02:23:36 10° NE
STARLINK-1349 3.1 02:18:06 18° WSW 02:20:13 63° NNW 02:23:19 10° NE
STARLINK-1336 3.1 02:18:28 18° WSW 02:20:36 62° NNW 02:23:42 10° NE
STARLINK-1331 3.2 02:18:45 18° WSW 02:20:54 62° NNW 02:24:00 10° NE
STARLINK-1344 3.2 02:19:05 18° WSW 02:21:14 62° NNW 02:24:20 10° NE
STARLINK-1343 3.2 02:19:25 18° WSW 02:21:36 61° NNW 02:24:41 10° NE
STARLINK-1346 3.2 02:19:43 17° WSW 02:21:56 61° NNW 02:25:04 10° NE
Cosmos 1328 4.3 02:19:19 18° SW 02:21:58 44° WNW 02:25:49 10° N
STARLINK-1328 3.2 02:20:05 17° WSW 02:22:17 61° NNW 02:25:23 10° NE
STARLINK-1354 3.2 02:20:22 17° WSW 02:22:35 60° NNW 02:25:41 10° NE
STARLINK-1347 3.2 02:20:44 17° WSW 02:22:57 60° NNW 02:26:02 10° NE
STARLINK-1357 3.2 02:21:02 17° WSW 02:23:16 59° NNW 02:26:22 10° NE
STARLINK-1335 3.2 02:21:22 17° WSW 02:23:37 59° NNW 02:26:43 10° NE
ERS-2 2.0 02:20:17 10° SSE 02:23:56 81° WSW 02:27:37 10° NNW
STARLINK-1327 3.2 02:21:40 17° WSW 02:23:56 59° NNW 02:27:02 10° NE
STARLINK-1371 3.3 02:21:31 16° WSW 02:24:08 69° NNW 02:27:39 10° NE
STARLINK-1211 3.5 02:20:08 10° WNW 02:24:17 71° SW 02:28:23 10° SE
STARLINK-1340 3.2 02:22:01 16° WSW 02:24:19 58° NNW 02:27:23 10° NE
STARLINK-1356 3.3 02:22:21 16° WSW 02:24:38 58° NNW 02:27:44 10° NE
STARLINK-1345 3.3 02:22:41 16° WSW 02:24:59 58° NNW 02:28:05 10° NE
STARLINK-1355 3.3 02:22:59 16° WSW 02:25:19 57° NNW 02:28:24 10° NE
STARLINK-1321 3.3 02:23:18 16° WSW 02:25:38 57° NNW 02:28:44 10° NE
STARLINK-1358 3.3 02:23:39 16° WSW 02:26:00 57° NNW 02:29:05 10° NE
STARLINK-1341 3.4 02:23:29 16° WSW 02:26:11 66° NNW 02:29:41 10° NE
STARLINK-1332 3.3 02:23:57 16° WSW 02:26:19 56° NNW 02:29:24 10° NE
STARLINK-1348 3.3 02:24:18 15° WSW 02:26:41 56° NNW 02:29:45 10° NE
STARLINK-1330 3.3 02:24:36 15° WSW 02:27:00 56° NNW 02:30:05 10° NE
STARLINK-1363 3.3 02:24:56 15° WSW 02:27:20 55° NNW 02:30:25 10° NE
STARLINK-1337 3.3 02:25:15 15° WSW 02:27:40 55° NNW 02:30:45 10° NE
STARLINK-1342 3.3 02:25:35 15° WSW 02:28:01 55° NNW 02:31:05 10° NE
STARLINK-1374 3.4 02:25:26 15° WSW 02:28:14 64° NNW 02:31:44 10° NE
STARLINK-1364 3.4 02:25:55 15° WSW 02:28:21 54° NNW 02:31:26 10° NE
IRS-1C 4.3 02:23:12 10° N 02:28:30 63° WNW 02:33:25 12° SSW
STARLINK-1376 3.4 02:26:15 15° WSW 02:28:43 54° NNW 02:31:47 10° NE
STARLINK-1360 3.4 02:26:30 14° WSW 02:28:58 54° NNW 02:32:03 10° NE
STARLINK-1245 3.6 02:25:09 10° WNW 02:29:16 65° SW 02:33:21 10° SE
STARLINK-1361 3.4 02:26:56 14° WSW 02:29:25 53° NNW 02:32:29 10° NE
STARLINK-1367 3.4 02:27:10 14° WSW 02:29:41 54° NNW 02:32:48 10° NE
STARLINK-1366 3.4 02:27:33 14° WSW 02:30:03 53° NNW 02:33:08 10° NE
STARLINK-1339 3.5 02:27:27 14° WSW 02:30:20 62° NNW 02:33:48 10° NE
SL-4 R/B 3.6 02:26:42 10° WNW 02:31:14 39° N 02:35:35 10° ENE
STARLINK-1377 3.5 02:29:28 13° WSW 02:32:26 60° NNW 02:35:55 10° NE
Cosmos 2297 Rocket 3.0 02:28:01 10° NW 02:32:56 31° WSW 02:37:50 10° SSW
STARLINK-1233 3.6 02:30:08 10° WNW 02:34:13 60° SW 02:38:17 10° SE
STARLINK-1353 3.6 02:31:17 13° WSW 02:34:18 58° NNW 02:37:44 10° NE
STARLINK-1375 3.6 02:33:04 12° WSW 02:36:09 56° NNW 02:39:36 10° NE
Cosmos 2082 3.8 02:31:19 10° NNW 02:36:51 57° WSW 02:42:20 10° S
Cosmos 540 Rocket 3.5 02:32:22 11° SSW 02:37:21 84° WNW 02:42:32 10° NNE
ATLAS CENTAUR R/B 4.1 02:37:21 10° NW 02:38:10 10° NNW 02:38:59 10° NNW
STARLINK-1350 3.7 02:35:22 11° WSW 02:38:33 54° NNW 02:42:00 10° NE
STARLINK-1204 3.7 02:35:08 10° WNW 02:39:12 55° SW 02:43:14 10° SE
Landsat 5 3.8 02:36:19 10° SSE 02:40:48 83° ENE 02:45:21 10° NNW
STARLINK-1352 3.7 02:37:40 11° WSW 02:40:59 53° NNW 02:44:27 10° NE
OE (NEXTSAT) 4.5 02:37:54 10° W 02:41:23 77° N 02:44:52 10° E
Cosmos 2278 3.7 02:36:11 10° SSW 02:41:49 89° ESE 02:47:32 10° NNE
Cosmos 1455 4.0 02:40:11 10° NW 02:42:23 15° W 02:44:16 11° WSW
CZ-2D R/B 3.4 02:38:47 10° N 02:42:54 79° WNW 02:47:05 10° SSW
STARLINK-1368 3.8 02:39:45 10° WSW 02:43:10 51° NNW 02:46:38 10° NE
Meteor 1-28 Rocket 3.4 02:40:09 10° S 02:43:49 49° W 02:47:30 10° NNW
Meteor 1-11 4.4 02:38:20 10° SSW 02:43:53 60° WNW 02:49:26 10° N
USA 234 3.8 02:37:48 10° ENE 02:44:08 50° SE 02:50:27 10° SSW
STARLINK-1238 3.8 02:40:06 10° WNW 02:44:08 50° SW 02:48:08 10° SE
SL-16 R/B 4.1 02:41:06 10° WSW 02:44:24 15° W 02:47:53 10° NW
STARLINK-1369 3.8 02:41:41 10° WSW 02:45:05 49° NNW 02:48:31 10° NE
Cosmos 2074 Rocket 4.2 02:41:03 10° SSW 02:47:15 61° WNW 02:53:31 10° N
STARLINK-1372 3.9 02:44:09 10° WSW 02:47:35 48° NNW 02:51:01 10° NE
ATLAS CENTAUR R/B 3.3 02:44:10 10° WNW 02:47:40 32° SW 02:55:07 10° SSE
IRIDIUM 106 4.4 02:42:40 10° S 02:47:53 83° E 02:53:08 10° N
Cosmos 2263 Rocket 3.4 02:43:27 10° NNW 02:48:53 46° ENE 02:54:14 10° SE
STARLINK-1201 3.9 02:45:08 10° WNW 02:49:07 46° SW 02:53:04 10° SSE
Cosmos 841 Rocket 3.7 02:44:29 10° SSW 02:49:42 62° WNW 02:54:54 10° NNE
STARLINK-1378 4.0 02:46:23 10° W 02:49:48 47° NNW 02:53:14 10° NE
Cosmos 2322 Rocket 4.4 02:45:52 10° SSE 02:50:05 22° E 02:54:20 10° NE
STARLINK-1329 4.0 02:46:54 10° W 02:50:19 46° NNW 02:53:47 10° NE
Cosmos 372 Rocket 3.9 02:45:25 10° NNW 02:50:34 81° WSW 02:55:42 10° SSE
STARLINK-1365 4.0 02:47:40 10° W 02:51:04 45° NNW 02:54:29 10° NE
STARLINK-1240 4.4 02:47:20 10° NW 02:51:26 56° NNE 02:55:31 10° ESE
STARLINK-1379 4.0 02:48:37 10° W 02:52:02 45° NNW 02:55:27 10° NE
STARLINK-1362 4.0 02:49:12 10° W 02:52:37 45° NNW 02:56:04 10° NE
Cosmos 1892 3.8 02:49:36 10° SSE 02:53:16 45° E 02:56:56 10° NNE
COBE Rocket 4.3 02:49:11 10° S 02:53:52 46° W 02:58:44 10° NNW
STARLINK-1206 4.0 02:50:08 10° WNW 02:54:04 42° SW 02:57:59 10° SSE
Cosmos 1869 3.3 02:50:58 10° N 02:54:53 82° E 02:58:45 10° S
STARLINK-1373 4.1 02:51:31 10° W 02:54:56 44° NNW 02:58:22 10° NE
Cosmos 1400 Rocket 3.5 02:51:35 10° NNW 02:55:25 38° W 02:59:15 10° SSW
Cosmos 2221 2.5 02:51:56 10° N 02:56:17 84° W 03:00:37 10° S
STARLINK-1216 4.3 02:52:18 10° NW 02:56:25 60° NNE 03:00:31 10° ESE
STARLINK-1390 4.1 02:53:36 10° W 02:56:59 43° NNW 03:00:24 10° NE
Cosmos 2184 Rocket 4.3 02:52:50 10° SSW 02:58:50 52° WNW 03:04:51 10° N
STARLINK-1205 4.1 02:55:09 10° WNW 02:59:01 39° SW 03:02:52 10° SSE
SL-08 R/B 4.3 02:55:27 10° SSW 02:59:27 27° W 03:03:27 10° NW
CZ-4C R/B 3.3 02:56:17 10° S 02:59:46 49° W 03:03:19 10° NNW
STARLINK-1237 4.2 02:57:17 10° NW 03:01:25 64° NNE 03:05:32 10° ESE
STARLINK-1218 4.2 03:00:09 10° WNW 03:03:58 36° SW 03:07:45 10° SSE
